Torna al catalogo

STARLINK-36809

AttivoComunicazioniVLEO
NORAD 67929·PAYLOAD·🇺🇸 United States

Lanciato Feb 22, 2026 da Vandenberg Space Force Base

Loading…

Prossimi Passaggi (prossime 24 ore)

TLE

AggiornatoSource: CelesTrak SupGP

Epoca: Sep 14, 2026, 22:28 UTC

1 67929C 26036AB  26257.93659722  .00032284  00000+0  11693-2 0  2572
2 67929  43.0022 256.3378 0001365 269.1830 202.4718 15.27561945    14

Traccia STARLINK-36809 in tempo reale con AllMySat

Download on the App Store